User: anonymous   Login
Location: Mason Neck State Park
(38.6428°N, 77.1981°W)
Time: 15:54:27
(UTC-04:00)
Language:

Cosmos 1400 Rocket - Orbit

View from above orbital plane
View from above orbital plane
View from above satellite
View from above satellite

Ground track
Ground track

The orbit data is extracted from the following two-line orbital elements,

1 13403U 82079B   16180.82059257 -.00000191 +00000-0 -14493-4 0  9999
2 13403 081.1699 313.9712 0034069 004.9303 355.2248 15.06235592843309
Epoch (UTC): 28 June 2016 19:41:39
Eccentricity: 0.0034069
inclination: 81.1699°
perigee height: 524 km
apogee height: 571 km
right ascension of ascending node: 313.9712°
argument of perigee: 4.9303°
revolutions per day: 15.06235592
mean anomaly at epoch: 355.2248°
orbit number at epoch: 84330

The dashed part of the orbit path shows where the satellite is in the earth's shadow,  

DLR